[[{"header":{"parameterUnit":"m.s-1","parameterCategory":1,"la1":30.2991,"la2":30.254,"lo1":-89.0895,"lo2":-89.0444,"dy":0.0017,"dx":0.0017,"nx":28,"ny":28,"refTime":"2025-06-16T21:00:00:Z","depth":0,"parameterNumber":2,"parameterNumberName":"U-component_of_WINDS"},"data":[0,0,0,0,0,0,0,0,0,0,0,0,0,0,0,0,0,0,0,0,0,0,0,0,0,0,0,0,0,0,0,0,0,0,0,0,0,0,0,0,0,0,0,0,0,0,0,0,0,0,0,0,0,0,0,0,0,0,-0.1855,-0.1854,0,-0.1784,-0.1783,-0.1782,-0.1748,-0.1748,-0.1748,-0.1748,-0.1664,-0.1662,-0.166,0,0,0,0,0,0,0,0,0,0,0,0,0,-0.1951,-0.195,-0.1855,-0.1854,-0.1853,-0.1784,-0.1783,-0.1782,-0.1748,-0.1748,-0.1748,-0.1748,-0.1665,-0.1662,-0.166,0,0,0,0,0,0,0,0,0,0,0,0,0,-0.1897,-0.1949,-0.1855,-0.1828,-0.1825,-0.1784,-0.1783,-0.1782,-0.1748,-0.1748,-0.1748,-0.1748,-0.1666,-0.1663,-0.1659,-0.1636,0,0,-0.1649,-0.1647,0,0,0,0,0,0,0,0,-0.1901,-0.1894,-0.1833,-0.183,-0.1826,-0.1775,-0.1786,-0.1732,-0.1748,-0.1777,-0.1748,-0.1748,-0.17,-0.1694,-0.168,-0.1632,-0.1629,-0.1648,-0.1646,-0.1645,-0.1644,0,0,0,0,0,0,0,-0.1904,-0.1897,-0.1826,-0.1832,-0.1828,-0.1816,-0.1809,-0.1776,-0.1739,-0.1774,-0.1772,-0.1765,-0.1698,-0.1684,-0.1678,-0.1627,-0.1649,-0.1646,-0.1643,-0.1642,-0.1556,-0.1556,0,0,0,0,0,0,-0.1914,-0.19,-0.1828,-0.1824,-0.1865,-0.1815,-0.1806,-0.1791,-0.1739,-0.1731,-0.1765,-0.1763,-0.1689,-0.1682,-0.1675,-0.1645,-0.1645,-0.1642,-0.164,-0.1556,-0.1556,-0.1556,0,0,0,0,0,0,-0.1916,-0.1908,-0.1831,-0.1861,-0.1851,-0.1813,-0.1796,-0.179,-0.1775,-0.1732,-0.1724,-0.1757,-0.1689,-0.168,-0.1647,-0.1641,-0.164,-0.1637,-0.1556,-0.1556,-0.1556,-0.1584,0,0,0,0,0,0,-0.1919,-0.1909,-0.1902,-0.1862,-0.185,-0.1808,-0.1796,-0.1788,-0.1771,-0.1768,-0.1722,-0.1715,-0.1689,-0.1652,-0.1643,-0.1636,-0.1634,-0.1557,-0.1556,-0.1556,-0.1583,-0.1584,-0.1585,0,0,0,0,0,-0.1923,-0.191,-0.1902,-0.1893,-0.1841,-0.1808,-0.18,-0.1774,-0.177,-0.1762,-0.1734,-0.1716,-0.1643,-0.1649,-0.1639,-0.1631,-0.1557,-0.1556,-0.1556,-0.1583,-0.1584,-0.1585,0,0,0,0,0,0,-0.1947,-0.1904,-0.1895,-0.187,-0.1843,-0.1802,-0.179,-0.1776,-0.1747,-0.1745,-0.171,-0.17,-0.167,-0.1647,-0.1654,-0.1605,-0.1598,-0.1596,-0.1622,-0.1623,-0.1624,-0.163,-0.1631,0,0,0,0,0,-0.195,-0.193,-0.1893,-0.1874,-0.1861,-0.1829,-0.1813,-0.1795,-0.1764,-0.1752,-0.1721,-0.1689,-0.1659,-0.164,-0.1609,-0.158,-0.1568,-0.1569,-0.157,-0.1571,-0.1569,-0.1551,-0.155,-0.1554,-0.1554,-0.1554,0,0,-0.1955,-0.1929,-0.1918,-0.1878,-0.1856,-0.1833,-0.1819,-0.1795,-0.1777,-0.1747,-0.1715,-0.1692,-0.1653,-0.1622,-0.1606,-0.1601,-0.1566,-0.157,-0.1572,-0.1569,-0.155,-0.155,-0.155,-0.1554,-0.1554,-0.1554,0,0,-0.1953,-0.1932,-0.1915,-0.1893,-0.186,-0.1838,-0.1834,-0.1796,-0.178,-0.1749,-0.1726,-0.1701,-0.165,-0.1624,-0.1604,-0.1593,-0.1575,-0.1583,-0.1589,-0.1572,-0.1572,-0.1571,-0.1567,-0.1565,-0.1581,-0.1582,-0.1582,0,-0.1962,-0.1931,-0.1906,-0.1885,-0.1867,-0.1843,-0.1823,-0.1802,-0.1759,-0.1746,-0.1742,-0.1679,-0.1651,-0.1613,-0.1611,-0.1595,-0.1587,-0.1588,-0.1574,-0.1574,-0.1573,-0.1568,-0.1566,-0.1583,-0.1583,-0.1583,-0.1582,0,-0.1943,-0.1921,-0.1911,-0.1875,-0.1855,-0.1835,-0.1805,-0.1788,-0.1772,-0.1749,-0.1716,-0.1683,-0.1645,-0.1635,-0.1617,-0.1594,-0.1592,-0.1582,-0.1574,-0.1574,-0.1569,-0.1567,-0.1585,-0.1584,-0.1584,-0.1583,0,0,-0.1954,-0.1906,-0.1903,-0.1886,-0.1848,-0.1829,-0.1806,-0.1774,-0.1759,-0.173,-0.1709,-0.1667,-0.1658,-0.1635,-0.1614,-0.1599,-0.1591,-0.159,-0.1588,-0.1591,-0.1563,-0.1571,-0.157,-0.158,-0.1579,-0.1579,-0.1566,0,-0.1946,-0.1909,-0.1887,-0.1856,-0.1835,-0.1812,-0.1792,-0.1765,-0.1743,-0.1719,-0.1693,-0.1665,-0.1654,-0.1641,-0.1625,-0.1596,-0.1585,-0.1596,-0.1557,-0.1556,-0.1568,-0.1567,-0.1575,-0.1565,-0.1564,-0.1564,-0.1563,0,-0.1932,-0.1908,-0.1877,-0.1843,-0.1833,-0.1816,-0.1784,-0.1762,-0.173,-0.1715,-0.1691,-0.1671,-0.1642,-0.1638,-0.1597,-0.1605,-0.1587,-0.157,-0.1569,-0.1564,-0.1559,-0.1561,-0.1561,-0.156,-0.156,-0.156,-0.156,0,-0.1943,-0.1902,-0.1879,-0.1865,-0.1824,-0.1812,-0.1794,-0.1762,-0.1744,-0.1715,-0.1703,-0.1669,-0.1651,-0.1624,-0.1594,-0.1593,-0.1556,-0.1548,-0.154,-0.1541,-0.1533,-0.1534,-0.153,-0.1522,-0.1522,-0.1522,-0.1522,0,-0.1936,-0.1918,-0.1883,-0.1869,-0.1847,-0.182,-0.1798,-0.1777,-0.175,-0.1728,-0.1705,-0.1684,-0.1646,-0.162,-0.1596,-0.1565,-0.1557,-0.1542,-0.1536,-0.1544,-0.1546,-0.1531,-0.1531,-0.1522,-0.1522,-0.1522,-0.1522,0,-0.1944,-0.192,-0.1893,-0.1858,-0.1848,-0.1834,-0.1802,-0.1785,-0.1763,-0.1736,-0.1728,-0.1692,-0.166,-0.1628,-0.1584,-0.1567,-0.1537,-0.1529,-0.155,-0.1546,-0.154,-0.1541,-0.1526,-0.1522,-0.1518,-0.1518,-0.1518,0,-0.1942,-0.1928,-0.1892,-0.1878,-0.1862,-0.1839,-0.1821,-0.1794,-0.1776,-0.1739,-0.1726,-0.1694,-0.1666,-0.1616,-0.1583,-0.1549,-0.1539,-0.1536,-0.1533,-0.1543,-0.1538,-0.154,-0.1538,-0.1537,-0.1537,-0.1537,-0.1538,0,-0.1939,-0.1929,-0.1907,-0.188,-0.1861,-0.1838,-0.1814,-0.1802,-0.1769,-0.175,-0.172,-0.1699,-0.1656,-0.1623,-0.1585,-0.1562,-0.1543,-0.1539,-0.1535,-0.1543,-0.1556,-0.1549,-0.1553,-0.1539,-0.1539,-0.1539,-0.1539,-0.1539,-0.1941,-0.1928,-0.1902,-0.1877,-0.1857,-0.1835,-0.1819,-0.1796,-0.1771,-0.1737,-0.1721,-0.169,-0.1657,-0.1606,-0.1583,-0.1556,-0.1551,-0.1545,-0.1544,-0.1543,-0.1545,-0.1562,-0.1549,-0.1549,-0.1549,-0.1548,-0.1548,0,-0.1938,-0.192,-0.1899,-0.1867,-0.1848,-0.1836,-0.1809,-0.1792,-0.1767,-0.1739,-0.1714,-0.1679,-0.1647,-0.1613,-0.1578,-0.1563,-0.1554,-0.1555,-0.1555,-0.155,-0.1552,-0.1559,-0.1563,-0.1563,-0.1563,-0.1563,-0.1563,-0.1563,-0.1934,-0.1911,-0.1897,-0.1863,-0.1844,-0.1818,-0.1803,-0.1782,-0.176,-0.1723,-0.1698,-0.1678,-0.1647,-0.161,-0.1579,-0.157,-0.1557,-0.1561,-0.1549,-0.1551,-0.155,-0.1549,-0.1555,-0.1559,-0.1559,-0.1549,-0.1549,-0.1549]},{"header":{"parameterUnit":"m.s-1","parameterCategory":1,"la1":30.2991,"la2":30.254,"lo1":-89.0895,"lo2":-89.0444,"dy":0.0017,"dx":0.0017,"nx":28,"ny":28,"refTime":"2025-06-16T21:00:00:Z","depth":0,"parameterNumber":3,"parameterNumberName":"V-component_of_WINDS"},"data":[0,0,0,0,0,0,0,0,0,0,0,0,0,0,0,0,0,0,0,0,0,0,0,0,0,0,0,0,0,0,0,0,0,0,0,0,0,0,0,0,0,0,0,0,0,0,0,0,0,0,0,0,0,0,0,0,0,0,4.1231,4.123,0,4.1164,4.1164,4.1163,4.1148,4.1148,4.1149,4.1149,4.1077,4.1075,4.1072,0,0,0,0,0,0,0,0,0,0,0,0,0,4.1338,4.1336,4.1231,4.123,4.1229,4.1165,4.1164,4.1163,4.1148,4.1148,4.1149,4.1149,4.1078,4.1075,4.1072,0,0,0,0,0,0,0,0,0,0,0,0,0,4.1283,4.1336,4.1231,4.1214,4.1212,4.1165,4.1164,4.1162,4.1148,4.1148,4.1149,4.115,4.1079,4.1075,4.1072,4.1036,0,0,4.1061,4.1059,0,0,0,0,0,0,0,0,4.1287,4.128,4.1217,4.1215,4.1213,4.1165,4.1175,4.112,4.1147,4.1172,4.1149,4.115,4.1105,4.11,4.1086,4.1032,4.1029,4.1061,4.1058,4.1057,4.1056,0,0,0,0,0,0,0,4.129,4.1282,4.1204,4.1216,4.1213,4.1208,4.1201,4.1164,4.1135,4.117,4.1169,4.1161,4.1104,4.1089,4.1084,4.1028,4.1061,4.1058,4.1055,4.1054,4.0938,4.0938,0,0,0,0,0,0,4.1298,4.1286,4.1206,4.1202,4.1252,4.1205,4.1197,4.118,4.1136,4.113,4.1161,4.1161,4.1095,4.1088,4.1081,4.1035,4.1057,4.1054,4.1052,4.0939,4.0938,4.0937,0,0,0,0,0,0,4.13,4.1291,4.1209,4.1244,4.1233,4.1203,4.1183,4.1178,4.1163,4.1129,4.1123,4.1151,4.1095,4.1086,4.1047,4.1032,4.1052,4.1049,4.094,4.0939,4.0938,4.0942,0,0,0,0,0,0,4.1303,4.1292,4.128,4.1243,4.1231,4.1178,4.1182,4.1176,4.1157,4.1157,4.1118,4.1112,4.1095,4.1052,4.1043,4.1028,4.1046,4.0942,4.094,4.0938,4.0943,4.0941,4.0939,0,0,0,0,0,4.1307,4.1283,4.1279,4.127,4.1215,4.1177,4.117,4.1151,4.1156,4.1142,4.112,4.1114,4.1035,4.1048,4.1038,4.1021,4.0943,4.094,4.0938,4.0944,4.0942,4.0939,0,0,0,0,0,0,4.1317,4.1278,4.1273,4.1237,4.1211,4.1175,4.1157,4.115,4.112,4.1121,4.1098,4.1089,4.1051,4.1031,4.1047,4.0982,4.0989,4.0984,4.0996,4.0994,4.0992,4.0997,4.1043,0,0,0,0,0,4.1315,4.129,4.1256,4.1227,4.1214,4.1188,4.117,4.1158,4.1129,4.1118,4.1093,4.1063,4.1032,4.1011,4.0981,4.094,4.093,4.0923,4.0921,4.0919,4.0916,4.0891,4.0887,4.093,4.093,4.093,0,0,4.1311,4.1286,4.1271,4.1228,4.1206,4.1178,4.1178,4.1149,4.1127,4.1113,4.1074,4.1054,4.102,4.0979,4.096,4.0962,4.0902,4.0917,4.0916,4.0913,4.0888,4.0884,4.0881,4.0929,4.0929,4.0929,0,0,4.1289,4.1268,4.1241,4.1219,4.1186,4.1168,4.1162,4.1126,4.1113,4.1074,4.1062,4.1034,4.0981,4.0956,4.0937,4.0902,4.0894,4.0892,4.0882,4.0858,4.0855,4.0852,4.0838,4.0834,4.0889,4.0889,4.0889,0,4.1287,4.1246,4.1228,4.1199,4.1179,4.1165,4.1136,4.1115,4.1073,4.1059,4.1062,4.0993,4.0969,4.0922,4.0913,4.0898,4.0888,4.0897,4.0857,4.0854,4.085,4.0837,4.0833,4.0889,4.0889,4.0889,4.0889,0,4.1245,4.1216,4.1198,4.1159,4.1137,4.1108,4.1083,4.1063,4.1052,4.1033,4.0991,4.0962,4.0924,4.0911,4.09,4.0861,4.0864,4.0862,4.0868,4.0847,4.0834,4.0829,4.0889,4.0889,4.0889,4.0889,0,0,4.1229,4.1179,4.1173,4.1154,4.1115,4.1092,4.106,4.1025,4.1007,4.0977,4.0949,4.0903,4.0901,4.0879,4.0864,4.0843,4.0816,4.0844,4.0842,4.0839,4.0769,4.0771,4.0765,4.081,4.0809,4.0808,4.0772,0,4.1202,4.1149,4.113,4.1085,4.1057,4.1042,4.1014,4.0986,4.0967,4.0939,4.0916,4.0884,4.0884,4.087,4.0848,4.0824,4.0801,4.0826,4.0782,4.0781,4.0792,4.0759,4.0761,4.0729,4.0767,4.0766,4.0765,0,4.1164,4.1135,4.1088,4.1051,4.1038,4.1015,4.0979,4.0952,4.0919,4.0906,4.088,4.0866,4.083,4.0838,4.0787,4.0804,4.0784,4.0769,4.0767,4.0763,4.0772,4.0753,4.0718,4.0713,4.0757,4.0758,4.0759,0,4.1157,4.1106,4.107,4.1055,4.1011,4.0994,4.0974,4.0942,4.0921,4.0888,4.0874,4.0837,4.0817,4.0788,4.0764,4.0771,4.0714,4.072,4.0701,4.0702,4.0691,4.0692,4.0652,4.0678,4.0678,4.0678,4.0678,0,4.1129,4.1101,4.1066,4.1045,4.1011,4.0988,4.0955,4.0934,4.0905,4.0877,4.086,4.0834,4.0804,4.0772,4.0753,4.0713,4.0704,4.0691,4.0686,4.0693,4.0694,4.068,4.0682,4.0677,4.0677,4.0677,4.0677,0,4.1116,4.1093,4.1053,4.1014,4.1003,4.098,4.0946,4.0923,4.0902,4.0867,4.0857,4.0823,4.0785,4.0758,4.0709,4.0696,4.0653,4.0648,4.0665,4.0662,4.0645,4.0647,4.0595,4.0586,4.0618,4.0617,4.0617,0,4.1101,4.1078,4.1037,4.1018,4.0999,4.0968,4.0946,4.0921,4.0899,4.0858,4.0839,4.08,4.0768,4.0708,4.0678,4.064,4.0634,4.0618,4.0628,4.0634,4.0633,4.0635,4.0632,4.0617,4.0616,4.0616,4.0616,0,4.1075,4.1064,4.1034,4.0999,4.0974,4.0945,4.0916,4.09,4.0869,4.0844,4.0806,4.0782,4.0731,4.0692,4.0651,4.0628,4.0616,4.0613,4.0606,4.0613,4.0624,4.0617,4.0661,4.0615,4.0615,4.0615,4.0615,4.0615,4.106,4.1039,4.1006,4.0973,4.0948,4.092,4.0897,4.0872,4.0841,4.0799,4.0785,4.0745,4.0709,4.0652,4.0628,4.0595,4.0596,4.0586,4.0584,4.0582,4.0582,4.0629,4.0587,4.0587,4.0587,4.0587,4.0587,0,4.1033,4.1011,4.098,4.094,4.0913,4.0905,4.0871,4.0849,4.0815,4.0783,4.0751,4.0706,4.0667,4.0633,4.0593,4.0572,4.0566,4.0562,4.0564,4.0558,4.0585,4.0594,4.0568,4.0568,4.0568,4.0568,4.0568,4.0568,4.1016,4.098,4.0964,4.0914,4.0891,4.0853,4.0834,4.0808,4.0782,4.0733,4.0701,4.068,4.0646,4.0602,4.0566,4.0556,4.0542,4.054,4.0529,4.0555,4.0557,4.0559,4.0568,4.0537,4.0537,4.0506,4.0505,4.0505]}]]